Pearl, MS

6:18 AM CDT on September 29, 2016 (GMT -0500)
Jackson-Evers International

Weather History for KJAN - November, 2013

Change the Weather History Date:

Tuesday, November 12, 2013

  Actual Average Record
Temperature  
Mean Temperature 46 °F 57 °F  
Max Temperature 54 °F 69 °F 85 °F (1985)
Min Temperature 37 °F 45 °F 24 °F (1900)
Degree Days  
Heating Degree Days 19 9  
Month to date heating degree days 103 91  
Since 1 July heating degree days 185 198  
Cooling Degree Days 0 1  
Month to date cooling degree days 4 13  
Year to date cooling degree days 2336 2244  
Moisture  
Dew Point 40 °F    
Average Humidity 78    
Maximum Humidity 100    
Minimum Humidity 56    
Precipitation  
Precipitation 0.00 in 0.15 in 1.98 in (1929)
Month to date precipitation 0.03 1.68  
Year to date precipitation 53.16 45.91  
Sea Level Pressure  
Sea Level Pressure 30.36 in    
Wind  
Wind Speed 11 mph (North)    
Max Wind Speed 24 mph    
Max Gust Speed 32 mph    
Visibility 8 miles    
Events Fog    
T = Trace of Precipitation, MM = Missing Value Source: NWS Daily Summary

Daily Weather History Graph

Daily Weather History Graph

Search for Another Location

Airport or City:

Trip Planner

Search our weather history database for the weather conditions in past years. The results will help you decide how hot, cold, wet, or windy it might be!

Date:

Astronomy

Nov. 12, 2013 Rise Set
Actual Time 6:27 AM CST 5:01 PM CST
Civil Twilight 6:01 AM CST 5:27 PM CST
Nautical Twilight 5:31 AM CST 5:56 PM CST
Astronomical Twilight 5:02 AM CST 6:25 PM CST
Moon 2:01 PM CST (11/12) 1:33 AM CST (11/12)
Length of Visible Light 11h 26m
Length of Day
10h 34m
Waxing Gibbous, 76% of the Moon is Illuminated
Nov 12
Waxing Gibbous
Nov 17
Full
Nov 25
Last Quarter
Dec 2
New
Dec 9
First Quarter

Hourly Weather History & Observations

Time (CST) Temp. Windchill Dew Point Humidity Pressure Visibility Wind Dir Wind Speed Gust Speed Precip Events Conditions
12:01 AM 48.2 °F - 46.4 °F 93% 30.23 in 4.0 mi Calm Calm - N/A   Clear
12:29 AM 46.4 °F - 46.4 °F 100% 30.22 in 1.2 mi Calm Calm - N/A   Clear
12:42 AM 46.4 °F - 44.6 °F 93% 30.22 in 4.0 mi Calm Calm - N/A   Clear
12:54 AM 48.0 °F - 46.0 °F 93% 30.22 in 10.0 mi Calm Calm - N/A   Clear
1:52 AM 46.4 °F - 44.6 °F 93% 30.22 in 1.8 mi Calm Calm - N/A   Clear
1:54 AM 46.0 °F - 45.0 °F 96% 30.22 in 1.8 mi Calm Calm - N/A   Clear
1:59 AM 46.4 °F - 44.6 °F 93% 30.22 in 3.0 mi Calm Calm - N/A   Clear
2:07 AM 46.4 °F - 44.6 °F 93% 30.22 in 1.5 mi Calm Calm - N/A   Clear
2:16 AM 46.4 °F - 44.6 °F 93% 30.22 in 0.8 mi Calm Calm - N/A   Clear
2:20 AM 46.4 °F - 44.6 °F 93% 30.22 in 2.0 mi Calm Calm - N/A   Clear
2:27 AM 46.4 °F - 44.6 °F 93% 30.23 in 0.8 mi Calm Calm - N/A   Clear
2:54 AM 46.0 °F - 45.0 °F 96% 30.23 in 0.5 mi Calm Calm - N/A Fog Fog
3:24 AM 46.4 °F - 44.6 °F 93% 30.23 in 2.5 mi Calm Calm - N/A   Clear
3:31 AM 44.6 °F - 44.6 °F 100% 30.23 in 10.0 mi Calm Calm - N/A   Clear
3:54 AM 45.0 °F - 43.0 °F 93% 30.23 in 10.0 mi Calm Calm - N/A   Clear
4:54 AM 45.0 °F - 43.0 °F 93% 30.24 in 10.0 mi Calm Calm - N/A   Clear
5:54 AM 43.0 °F - 42.1 °F 97% 30.27 in 10.0 mi Calm Calm - N/A   Clear
6:54 AM 45.0 °F - 43.0 °F 93% 30.29 in 10.0 mi Calm Calm - N/A   Clear
7:54 AM 54.0 °F - 50.0 °F 86% 30.32 in 10.0 mi North 13.8 mph - N/A   Clear
8:38 AM 53.6 °F - 48.2 °F 82% 30.35 in 10.0 mi North 11.5 mph 25.3 mph N/A   Mostly Cloudy
8:54 AM 53.1 °F - 48.0 °F 83% 30.36 in 10.0 mi North 17.3 mph 25.3 mph N/A   Overcast
9:39 AM 51.8 °F - 48.2 °F 88% 30.39 in 7.0 mi NNW 16.1 mph - N/A   Overcast
9:54 AM 52.0 °F - 48.0 °F 86% 30.39 in 6.0 mi North 10.4 mph - N/A   Overcast
10:36 AM 51.8 °F - 44.6 °F 76% 30.41 in 9.0 mi NNW 16.1 mph 25.3 mph N/A   Overcast
10:54 AM 51.1 °F - 45.0 °F 80% 30.41 in 10.0 mi NNW 12.7 mph 21.9 mph N/A   Overcast
11:30 AM 51.8 °F - 44.6 °F 76% 30.41 in 10.0 mi NNW 16.1 mph - N/A   Overcast
11:54 AM 53.1 °F - 44.1 °F 71% 30.41 in 10.0 mi North 13.8 mph 21.9 mph N/A   Overcast
12:54 PM 53.1 °F - 39.9 °F 61% 30.41 in 10.0 mi North 18.4 mph 29.9 mph N/A   Mostly Cloudy
1:54 PM 51.1 °F - 37.9 °F 61% 30.41 in 10.0 mi North 18.4 mph 25.3 mph N/A   Overcast
2:54 PM 51.1 °F - 37.0 °F 59% 30.43 in 10.0 mi North 16.1 mph - N/A   Overcast
3:02 PM 51.8 °F - 35.6 °F 54% 30.42 in 10.0 mi North 18.4 mph 23.0 mph N/A   Overcast
3:54 PM 50.0 °F - 36.0 °F 59% 30.43 in 10.0 mi North 13.8 mph 23.0 mph N/A   Mostly Cloudy
4:54 PM 45.0 °F 37.1 °F 30.9 °F 58% 30.46 in 10.0 mi North 19.6 mph 28.8 mph N/A   Partly Cloudy
5:54 PM 43.0 °F 35.1 °F 30.0 °F 60% 30.49 in 10.0 mi North 17.3 mph 26.5 mph N/A   Partly Cloudy
6:54 PM 42.1 °F 33.6 °F 28.0 °F 58% 30.53 in 10.0 mi North 18.4 mph 27.6 mph N/A   Partly Cloudy
7:54 PM 39.9 °F 32.1 °F 28.0 °F 63% 30.54 in 10.0 mi North 13.8 mph 23.0 mph N/A   Partly Cloudy
8:54 PM 39.0 °F 31.0 °F 28.0 °F 65% 30.56 in 10.0 mi North 13.8 mph - N/A   Partly Cloudy
9:54 PM 37.9 °F 30.0 °F 26.1 °F 62% 30.57 in 10.0 mi North 12.7 mph - N/A   Clear
10:54 PM 37.9 °F 28.5 °F 26.1 °F 62% 30.57 in 10.0 mi North 17.3 mph 21.9 mph N/A   Clear
11:54 PM 37.0 °F 28.1 °F 25.0 °F 62% 30.56 in 10.0 mi North 15.0 mph 20.7 mph N/A   Clear